Retour au catalogue

DELTA 1 DEB

ActifSSO
NORAD 21472·DEBRIS·🇺🇸 United States

Lancé Jun 12, 1975 depuis Vandenberg Space Force Base

Loading…

Prochains Passages (prochaines 24 heures)

TLE

FraisSource: Space-Track

Époque: Sep 13, 2026, 14:12 UTC

1 21472U 75052FG  26256.59200953  .00000518  00000-0  62638-3 0  9991
2 21472  99.7647 123.2552 0245608 270.9877  86.3133 13.59513047743810

Suivez DELTA 1 DEB en temps réel avec AllMySat

Download on the App Store